Starlink 31487

operational
NORAD ID: 59297 Int'l Des: 2024-056 Owner: SPXS Country: US Constellation: starlink
LEOCIRCULAR

关于 Starlink 31487

正在加载描述...

实时位置

正在加载3D地球...

即将过境

高度历史

Altitude vs Time

uPlot chart will show altitude changes over time

两行轨道根数

1 59297U 24056B 25351.31446546 .00002806 00000-0 11140-3 0 9994
2 59297 42.9997 336.1371 0001018 252.2135 107.8605 15.27594173 98679
Epoch: Dec 17, 2025 • Age: 13 hours

当前状态

高度 483.0 km
速度 7.63 km/s
星下点 -2.84°S, 115.74°E
发射日期 Mar 24, 2024
运行时间 1.7 years
类型 internet

技术详情

分类 Payload
质量 730.00 kg
干质量 700.00 kg
总质量 730.00 kg
长度 0.30 m
直径 4.10 m
跨度 29.00 m
形状 Box + pan
制造商 SPXS
平台类型 Starlink V2M
阶段状态 In Orbit
所有者/国家 SPXS/US

大型星座

Loading constellations...